MSR727 LTFJ-LTAI

Flight info

Callsign MSR727
Flight time 0h 44m
Altitude 29000
Route ROXUK1J/06L ROXUK UN617 ERVAG UT305 TEKDO UT35 BABSA
Aircraft A320/M-SDE3FGHIRWY/LB1

Departure

Time 2026-05-05 17:11
Airport Istanbul Sabiha Gökçen International Airport (LTFJ)

Arrival

Time 2026-05-05 17:56
Airport Antalya International Airport (LTAI)
Time Latitude Longitude Altitude Speed Heading
2026-05-05 16:57 40.90609 29.31575 311 ft 0 kts 334°
2026-05-05 17:01 40.90592 29.31586 311 ft 4 kts 334°
2026-05-05 17:02 40.90568 29.31601 311 ft 4 kts 334°
2026-05-05 17:02 40.90545 29.31616 311 ft 4 kts 333°
2026-05-05 17:02 40.90522 29.31631 311 ft 4 kts 331°
2026-05-05 17:02 40.90516 29.31636 311 ft 0 kts 330°
2026-05-05 17:05 40.90517 29.31632 311 ft 0 kts 311°
2026-05-05 17:05 40.90510 29.31601 311 ft 7 kts 242°
2026-05-05 17:05 40.90479 29.31518 311 ft 12 kts 244°
2026-05-05 17:05 40.90435 29.31432 311 ft 11 kts 202°
2026-05-05 17:06 40.90356 29.31472 311 ft 14 kts 153°
2026-05-05 17:06 40.90275 29.31479 311 ft 12 kts 220°
2026-05-05 17:06 40.90230 29.31369 309 ft 15 kts 244°
2026-05-05 17:06 40.90181 29.31234 311 ft 18 kts 244°
2026-05-05 17:07 40.90122 29.31075 311 ft 20 kts 244°
2026-05-05 17:07 40.90057 29.30899 310 ft 23 kts 244°
2026-05-05 17:07 40.89985 29.30703 310 ft 25 kts 244°
2026-05-05 17:07 40.89906 29.30489 309 ft 27 kts 244°
2026-05-05 17:08 40.89820 29.30256 310 ft 29 kts 244°
2026-05-05 17:08 40.89727 29.30003 309 ft 32 kts 244°
2026-05-05 17:08 40.89628 29.29733 305 ft 34 kts 244°
2026-05-05 17:08 40.89521 29.29443 303 ft 35 kts 244°
2026-05-05 17:09 40.89448 29.29269 303 ft 8 kts 216°
2026-05-05 17:09 40.89387 29.29260 304 ft 10 kts 160°
2026-05-05 17:09 40.89368 29.29272 303 ft 0 kts 155°
2026-05-05 17:10 40.89356 29.29279 304 ft 3 kts 155°
2026-05-05 17:10 40.89320 29.29302 302 ft 8 kts 152°
2026-05-05 17:10 40.89283 29.29368 303 ft 10 kts 87°
2026-05-05 17:10 40.89317 29.29460 304 ft 18 kts 63°
2026-05-05 17:11 40.89476 29.29891 308 ft 87 kts 64°
2026-05-05 17:11 40.89825 29.30837 312 ft 140 kts 64°
2026-05-05 17:11 40.90300 29.32148 533 ft 163 kts 65°
2026-05-05 17:11 40.90789 29.33489 1183 ft 161 kts 64°
2026-05-05 17:12 40.91288 29.34829 1712 ft 169 kts 64°
2026-05-05 17:12 40.91830 29.36305 1974 ft 192 kts 64°
2026-05-05 17:12 40.92439 29.37975 2307 ft 212 kts 64°
2026-05-05 17:12 40.93118 29.39817 2581 ft 237 kts 63°
2026-05-05 17:13 40.93608 29.41985 3129 ft 253 kts 91°
2026-05-05 17:13 40.93108 29.44238 3901 ft 263 kts 120°
2026-05-05 17:13 40.91910 29.46080 4777 ft 269 kts 143°
2026-05-05 17:13 40.90203 29.47088 5647 ft 273 kts 168°
2026-05-05 17:14 40.88319 29.47555 6542 ft 277 kts 171°
2026-05-05 17:14 40.86407 29.47993 7402 ft 281 kts 171°
2026-05-05 17:14 40.84461 29.48432 8261 ft 285 kts 171°
2026-05-05 17:14 40.82490 29.48878 9085 ft 289 kts 170°
2026-05-05 17:15 40.80492 29.49356 9877 ft 293 kts 169°
2026-05-05 17:15 40.78478 29.49855 10393 ft 308 kts 169°
2026-05-05 17:15 40.76292 29.50405 10617 ft 331 kts 169°
2026-05-05 17:15 40.73955 29.50996 10869 ft 351 kts 169°
2026-05-05 17:16 40.71524 29.51612 11458 ft 358 kts 169°
2026-05-05 17:16 40.69057 29.52233 12137 ft 362 kts 169°
2026-05-05 17:16 40.66569 29.52854 12805 ft 366 kts 169°
2026-05-05 17:16 40.64054 29.53481 13474 ft 370 kts 169°
2026-05-05 17:17 40.61512 29.54111 14133 ft 373 kts 169°
2026-05-05 17:17 40.58951 29.54743 14790 ft 376 kts 169°
2026-05-05 17:17 40.56368 29.55383 15398 ft 379 kts 169°
2026-05-05 17:17 40.53759 29.56030 16000 ft 383 kts 169°
2026-05-05 17:18 40.51131 29.56684 16584 ft 385 kts 169°
2026-05-05 17:18 40.48489 29.57341 17168 ft 389 kts 169°
2026-05-05 17:18 40.45821 29.58001 17746 ft 392 kts 169°
2026-05-05 17:18 40.44040 29.58441 18133 ft 394 kts 169°
2026-05-05 17:19 40.41331 29.59110 18718 ft 398 kts 169°
2026-05-05 17:19 40.38603 29.59785 19292 ft 401 kts 169°
2026-05-05 17:19 40.35835 29.60472 19897 ft 407 kts 169°
2026-05-05 17:19 40.33042 29.61163 20485 ft 408 kts 168°
2026-05-05 17:20 40.30233 29.61852 20961 ft 413 kts 169°
2026-05-05 17:20 40.27385 29.62557 21488 ft 418 kts 170°
2026-05-05 17:20 40.24546 29.63247 21924 ft 419 kts 169°
2026-05-05 17:20 40.21650 29.63951 22355 ft 423 kts 169°
2026-05-05 17:21 40.18747 29.64661 22799 ft 427 kts 169°
2026-05-05 17:21 40.15820 29.65383 23227 ft 430 kts 169°
2026-05-05 17:21 40.12868 29.66107 23654 ft 433 kts 169°
2026-05-05 17:22 40.06895 29.67555 24459 ft 439 kts 169°
2026-05-05 17:22 40.03888 29.68279 24847 ft 441 kts 170°
2026-05-05 17:22 40.00854 29.69008 25235 ft 444 kts 170°
2026-05-05 17:22 39.97808 29.69742 25608 ft 447 kts 170°
2026-05-05 17:23 39.94741 29.70482 25969 ft 449 kts 170°
2026-05-05 17:23 39.91662 29.71223 26334 ft 451 kts 170°
2026-05-05 17:23 39.88646 29.72193 26683 ft 454 kts 162°
2026-05-05 17:23 39.85666 29.73742 27036 ft 457 kts 156°
2026-05-05 17:24 39.82784 29.75372 27372 ft 459 kts 156°
2026-05-05 17:24 39.79846 29.77033 27711 ft 461 kts 156°
2026-05-05 17:24 39.76899 29.78697 28030 ft 463 kts 156°
2026-05-05 17:24 39.73933 29.80373 28354 ft 466 kts 156°
2026-05-05 17:25 39.70957 29.82055 28757 ft 466 kts 156°
2026-05-05 17:25 39.68948 29.83190 28976 ft 466 kts 156°
2026-05-05 17:25 39.65014 29.85400 29078 ft 465 kts 156°
2026-05-05 17:26 39.59077 29.88720 29082 ft 464 kts 157°
2026-05-05 17:26 39.53151 29.92034 29079 ft 464 kts 157°
2026-05-05 17:27 39.47232 29.95361 29082 ft 464 kts 156°
2026-05-05 17:27 39.41320 29.98718 29083 ft 465 kts 156°
2026-05-05 17:28 39.35399 30.02066 29077 ft 464 kts 156°
2026-05-05 17:28 39.29473 30.05404 29072 ft 465 kts 156°
2026-05-05 17:29 39.23579 30.08720 29075 ft 465 kts 156°
2026-05-05 17:29 39.17637 30.12049 29068 ft 465 kts 159°
2026-05-05 17:30 39.11447 30.14431 29069 ft 465 kts 165°
2026-05-05 17:30 39.05218 30.16689 29068 ft 465 kts 165°
2026-05-05 17:31 38.99000 30.19016 29068 ft 466 kts 164°
2026-05-05 17:31 38.92791 30.21405 29069 ft 465 kts 164°
2026-05-05 17:32 38.86652 30.23756 29071 ft 466 kts 164°
2026-05-05 17:32 38.80435 30.26121 29069 ft 466 kts 164°
2026-05-05 17:33 38.74216 30.28484 29073 ft 465 kts 165°
2026-05-05 17:33 38.68000 30.30837 29067 ft 466 kts 165°
2026-05-05 17:34 38.61791 30.33178 29069 ft 465 kts 165°
2026-05-05 17:34 38.55569 30.35505 29068 ft 465 kts 165°
2026-05-05 17:35 38.49390 30.37826 28843 ft 466 kts 165°
2026-05-05 17:35 38.46274 30.38996 28590 ft 467 kts 165°
2026-05-05 17:35 38.43176 30.40158 27947 ft 463 kts 165°
2026-05-05 17:35 38.40090 30.41312 27225 ft 461 kts 165°
2026-05-05 17:36 38.37025 30.42457 26509 ft 458 kts 165°
2026-05-05 17:36 38.33973 30.43600 25802 ft 455 kts 165°
2026-05-05 17:36 38.30939 30.44735 25094 ft 453 kts 165°
2026-05-05 17:36 38.27929 30.45861 24389 ft 450 kts 165°
2026-05-05 17:37 38.24932 30.46979 23693 ft 447 kts 165°
2026-05-05 17:37 38.21952 30.48087 22989 ft 445 kts 165°
2026-05-05 17:37 38.18995 30.49190 22299 ft 441 kts 164°
2026-05-05 17:37 38.16062 30.50286 21639 ft 437 kts 164°
2026-05-05 17:38 38.13150 30.51372 20975 ft 434 kts 164°
2026-05-05 17:38 38.10266 30.52443 20344 ft 430 kts 164°
2026-05-05 17:38 38.07405 30.53504 19739 ft 426 kts 164°
2026-05-05 17:38 38.04571 30.54554 19139 ft 422 kts 164°
2026-05-05 17:39 38.01806 30.55581 18574 ft 417 kts 164°
2026-05-05 17:39 37.99028 30.56610 17991 ft 414 kts 164°
2026-05-05 17:39 37.96267 30.57629 17424 ft 412 kts 164°
2026-05-05 17:39 37.93517 30.58642 16824 ft 409 kts 164°
2026-05-05 17:40 37.90814 30.59637 16225 ft 397 kts 163°
2026-05-05 17:40 37.88224 30.60574 15648 ft 379 kts 164°
2026-05-05 17:40 37.85715 30.61485 15056 ft 369 kts 165°
2026-05-05 17:40 37.83290 30.62378 14499 ft 357 kts 163°
2026-05-05 17:41 37.80894 30.63294 13934 ft 359 kts 164°
2026-05-05 17:41 37.78516 30.64198 13354 ft 358 kts 163°
2026-05-05 17:41 37.76140 30.65068 12751 ft 357 kts 165°
2026-05-05 17:41 37.73754 30.65928 12188 ft 355 kts 164°
2026-05-05 17:42 37.71382 30.66797 11593 ft 354 kts 164°
2026-05-05 17:42 37.69022 30.67664 11149 ft 350 kts 164°
2026-05-05 17:42 37.66745 30.68497 11025 ft 328 kts 164°
2026-05-05 17:42 37.64653 30.69265 11044 ft 299 kts 164°
2026-05-05 17:43 37.62734 30.69972 11048 ft 279 kts 164°
2026-05-05 17:43 37.60882 30.70654 10878 ft 277 kts 164°
2026-05-05 17:43 37.59054 30.71326 10613 ft 268 kts 164°
2026-05-05 17:43 37.57239 30.71991 10504 ft 273 kts 164°
2026-05-05 17:44 37.55412 30.72661 10380 ft 273 kts 164°
2026-05-05 17:44 37.53583 30.73330 10249 ft 274 kts 164°
2026-05-05 17:44 37.51758 30.73998 10128 ft 273 kts 164°
2026-05-05 17:44 37.49938 30.74665 10003 ft 273 kts 164°
2026-05-05 17:45 37.48151 30.75317 9800 ft 265 kts 164°
2026-05-05 17:45 37.46437 30.75941 9675 ft 248 kts 164°
2026-05-05 17:45 37.44829 30.76525 9492 ft 235 kts 164°
2026-05-05 17:45 37.43263 30.77094 9082 ft 233 kts 164°
2026-05-05 17:46 37.41734 30.77654 9031 ft 227 kts 164°
2026-05-05 17:46 37.40199 30.78212 8590 ft 235 kts 164°
2026-05-05 17:46 37.38573 30.78800 7952 ft 251 kts 164°
2026-05-05 17:46 37.36862 30.79420 7282 ft 259 kts 163°
2026-05-05 17:47 37.35176 30.80039 7051 ft 241 kts 163°
2026-05-05 17:47 37.33634 30.80606 7013 ft 222 kts 164°
2026-05-05 17:47 37.32160 30.81141 6981 ft 220 kts 164°
2026-05-05 17:47 37.30667 30.81689 6547 ft 231 kts 164°
2026-05-05 17:48 37.29106 30.82272 6015 ft 232 kts 164°
2026-05-05 17:48 37.27576 30.82817 5770 ft 220 kts 171°
2026-05-05 17:48 37.26076 30.82909 5680 ft 208 kts 181°
2026-05-05 17:48 37.24641 30.82887 5608 ft 207 kts 182°
2026-05-05 17:49 37.23187 30.82877 5532 ft 208 kts 179°
2026-05-05 17:49 37.21714 30.82881 5324 ft 213 kts 180°
2026-05-05 17:49 37.20244 30.82887 5076 ft 211 kts 180°
2026-05-05 17:49 37.18781 30.83015 4852 ft 209 kts 178°
2026-05-05 17:50 37.17332 30.82985 4631 ft 208 kts 185°
2026-05-05 17:50 37.15911 30.82824 4420 ft 207 kts 187°
2026-05-05 17:50 37.14494 30.82632 4274 ft 201 kts 187°
2026-05-05 17:50 37.13125 30.82443 4067 ft 195 kts 187°
2026-05-05 17:51 37.11802 30.82261 3874 ft 187 kts 187°
2026-05-05 17:51 37.10531 30.82088 3781 ft 183 kts 187°
2026-05-05 17:51 37.09271 30.81912 3613 ft 181 kts 186°
2026-05-05 17:51 37.08016 30.81737 3391 ft 181 kts 187°
2026-05-05 17:52 37.06775 30.81567 3165 ft 178 kts 187°
2026-05-05 17:52 37.05552 30.81399 2931 ft 176 kts 188°
2026-05-05 17:52 37.04341 30.81233 2695 ft 172 kts 187°
2026-05-05 17:52 37.03187 30.81077 2471 ft 163 kts 187°
2026-05-05 17:53 37.02075 30.80923 2262 ft 159 kts 188°
2026-05-05 17:53 37.00986 30.80773 2067 ft 153 kts 187°
2026-05-05 17:53 36.99960 30.80631 1849 ft 145 kts 187°
2026-05-05 17:53 36.98967 30.80494 1663 ft 143 kts 187°
2026-05-05 17:54 36.97982 30.80359 1468 ft 142 kts 187°
2026-05-05 17:54 36.97004 30.80224 1279 ft 141 kts 187°
2026-05-05 17:54 36.96031 30.80090 1096 ft 140 kts 187°
2026-05-05 17:54 36.95063 30.79958 908 ft 140 kts 187°
2026-05-05 17:55 36.94096 30.79826 726 ft 140 kts 187°
2026-05-05 17:55 36.93132 30.79694 538 ft 139 kts 187°
2026-05-05 17:55 36.92169 30.79560 352 ft 139 kts 187°
2026-05-05 17:55 36.91214 30.79431 193 ft 132 kts 187°
2026-05-05 17:56 36.90455 30.79330 199 ft 85 kts 186°
2026-05-05 17:56 36.90039 30.79273 191 ft 37 kts 186°
2026-05-05 17:56 36.89861 30.79247 191 ft 29 kts 186°
2026-05-05 17:56 36.89660 30.79222 200 ft 28 kts 184°
2026-05-05 17:57 36.89483 30.79290 204 ft 25 kts 154°
2026-05-05 17:57 36.89427 30.79385 195 ft 14 kts 50°
2026-05-05 17:57 36.89525 30.79419 192 ft 16 kts
2026-05-05 17:57 36.89648 30.79437 197 ft 19 kts
2026-05-05 17:58 36.89792 30.79455 196 ft 22 kts
2026-05-05 17:58 36.89955 30.79477 201 ft 25 kts
2026-05-05 17:58 36.90136 30.79504 191 ft 28 kts
2026-05-05 17:58 36.90335 30.79530 196 ft 30 kts
2026-05-05 17:59 36.90548 30.79561 191 ft 32 kts
2026-05-05 17:59 36.90774 30.79591 198 ft 34 kts
2026-05-05 17:59 36.90963 30.79620 191 ft 18 kts
2026-05-05 17:59 36.91079 30.79637 196 ft 18 kts
2026-05-05 18:00 36.91171 30.79650 195 ft 0 kts
2026-05-05 18:00 36.91183 30.79654 197 ft 3 kts 17°
2026-05-05 18:00 36.91204 30.79679 191 ft 5 kts 60°
2026-05-05 18:00 36.91210 30.79735 191 ft 8 kts 95°
2026-05-05 18:01 36.91205 30.79807 202 ft 9 kts 90°
2026-05-05 18:01 36.91216 30.79882 194 ft 9 kts 44°
2026-05-05 18:01 36.91276 30.79891 195 ft 10 kts
2026-05-05 18:01 36.91347 30.79910 191 ft 9 kts 39°
2026-05-05 18:02 36.91348 30.79973 205 ft 9 kts 96°
2026-05-05 18:02 36.91342 30.80046 196 ft 3 kts 97°
2026-05-05 18:02 36.91340 30.80061 201 ft 3 kts 96°
2026-05-05 18:02 36.91339 30.80071 191 ft 0 kts 96°